Location: Brachbach
(49.1847°N, 9.7240°E)
Time: 14:40:34
(UTC+00:00)

Nimbus 7 Rocket - Pass Details

Date: 15 August 2024
Orbit: 921 x 965 km, 99.4° (Epoch: 14 September)

Event Time Altitude Azimuth Distance (km) Brightness Sun altitude
Rises 01:12:29 0° 11° (N) 3,592 8.7 -22.6°
Reaches altitude 10° 01:15:03 10° 4° (N) 2,640 7.7 -22.4°
Maximum altitude 01:20:30 41° 297° (WNW) 1,312 5.1 -22.0°
Enters shadow 01:22:25 32° 256° (WSW) 1,538 5.2 -21.8°
